Flag for Canada Weather past 2 weeks in Kitchener, Ontario, Canada

Now
64 °F

Partly cloudy.


Feels Like: 64 °F
Forecast: 47 / 64 °F
Wind: 14 mph from Southwest

Location: Waterloo Well

Current Time: Sep 21, 2014 at 12:46:43 AM

Latest Report: Sep 21, 2014 at 12:00 AM


Visibility: 9 mi

Pressure: 29.76 "Hg

Humidity: 88%

Dew point: 61 °F

Location of KitchenerLocation

Historic Weather in Kitchener — Graph

°F

Kitchener temperature yesterday

Maximum temperature yesterday: 75 °F (at 3:00 PM)
Minimum temperature yesterday: 41 °F (at 1:00 AM)
Average temperature yesterday: 58 °F

Past Weeks' High & Low Weather Summary

 TemperatureHumidityPressure
High75 °F (Sep 20, 3:00 PM)100% (Sep 6, 2:00 AM)30.37 "Hg (Sep 6, 2:00 AM)
Low36 °F (Sep 19, 2:00 AM)43% (Sep 7, 5:00 PM)29.54 "Hg (Sep 11, 3:00 AM)
Average55 °F83%30.09 "Hg
* Reported Sep 5 11:00 PM — Sep 20 11:00 PM, Kitchener, Weather by CustomWeather, © 2014

Note: Actual official high and low records may vary slightly from our data, if they occured in-between our weather recording intervals... More about our weather records

Advertising

Kitchener weather history for previous 24 hours

 ConditionsComfort  
Time TempWeatherWind HumidityBarometerVisibility
11:00 PM
Sep 20
66 °FLight rain. Mostly cloudy.10 mph83%29.77 "Hg9 mi
10:00 PM68 °FLight rain. Mostly cloudy.15 mph78%29.78 "Hg9 mi
9:00 PM68 °FMostly cloudy.14 mph78%29.79 "Hg9 mi
8:00 PM68 °FOvercast.14 mph78%29.80 "Hg9 mi
7:00 PM70 °FMostly cloudy.14 mph69%29.80 "Hg9 mi
6:00 PM72 °FPartly sunny.21 mph65%29.81 "Hg9 mi
5:00 PM72 °FPartly sunny.20 mph65%29.84 "Hg9 mi
4:00 PM73 °FPassing clouds.25 mph57%29.85 "Hg9 mi
3:00 PM75 °FSunny.21 mph54%29.85 "Hg9 mi
2:00 PM73 °FSunny.21 mph61%29.87 "Hg9 mi
1:00 PM73 °FSunny.20 mph61%29.90 "Hg9 mi
9:00 AM59 °FFog.9 mph100%30.01 "Hg1 mi
8:00 AM57 °FFog.8 mph94%30.01 "Hg0 mi
7:00 AM55 °FFog.10 mph100%30.01 "Hg1 mi
6:00 AM54 °FFog.6 mph94%30.03 "Hg1 mi
5:00 AM45 °FFog.No wind100%30.03 "Hg2 mi
4:00 AM45 °FFog.No wind93%30.03 "Hg4 mi
3:00 AM43 °FLight rain. Fog.3 mph93%30.04 "Hg0 mi
2:02 AM41 °FFog.No wind100%30.06 "Hg2 mi
2:00 AM43 °FFog.No wind93%30.06 "Hg3 mi
1:52 AM41 °FFog.3 mph100%30.06 "Hg3 mi
1:00 AM41 °FLight rain. Fog.No wind93%30.08 "Hg1 mi
12:53 AM43 °FLight rain. Fog.No wind93%30.08 "Hg1 mi
12:00 AM43 °FFog.3 mph100%30.10 "Hg3 mi
Weather by CustomWeather, © 2014

See weather overviewHow to use our weather pages